Regional Weather Roundup
Issued by NWS

Home | Current Version | Previous Version | Text Only | Print | Product List | Glossary On
Versions: 1 2 3 4 5 6 7 8 9 10 11 12 13 14 15 16 17 18 19 20 21 22 23 24 25 26 27 28
000
ASUS45 KCYS 270610
RWRWY

WYOMING REGIONAL WEATHER ROUNDUP
NATIONAL WEATHER SERVICE CHEYENNE WY
1200 AM MDT WED JUL 27 2016

NOTE:  "FAIR" INDICATES FEW OR NO CLOUDS BELOW 12,000 FEET
WITH NO SIGNIFICANT WEATHER AND/OR OBSTRUCTIONS TO VISIBILITY.

WYZ001-270700-
YELLOWSTONE NATIONAL PARK

CITY           SKY/WX    TMP DP  RH WIND       PRES   REMARKS
LK YELLOWSTONE   N/A     54  37  52 CALM      30.38S
6HR MIN TEMP:  53; 6HR MAX TEMP:  72;

W YELLOWSTONE  NOT AVBL

$$
WYZ002>013-054>058-071-098>099-270700-
NORTHERN WYOMING

CITY           SKY/WX    TMP DP  RH WIND       PRES   REMARKS
JACKSON        FAIR      63  36  36 N13       30.25R
CODY           FAIR      70  41  35 NW5       30.17S
GREYBULL       FAIR      73  50  44 SW9       30.05S
6HR MIN TEMP:  72; 6HR MAX TEMP:  95; 6HR PCP: TRACE;

WORLAND        LGT RAIN  71  51  49 N8G21     30.12S
6HR MIN TEMP:  70; 6HR MAX TEMP:  94; 6HR PCP: TRACE;

SHERIDAN       FAIR      67  51  56 NE5       30.10R
6HR MIN TEMP:  65; 6HR MAX TEMP:  90;

BUFFALO        MOCLDY    70  48  45 W18G37    30.21R THUNDER
6HR MIN TEMP:  67; 6HR MAX TEMP:  81; 6HR PCP:  0.04;

GILLETTE       FAIR      63  55  75 S7        30.13R
6HR MIN TEMP:  59; 6HR MAX TEMP:  84;

HULETT         FAIR      68  59  73 E14G23    30.14F
NEWCASTLE      FAIR      64  54  68 SE9       30.13R

$$
WYZ014>020-022>026-101>103-270700-
CENTRAL WYOMING

CITY           SKY/WX    TMP DP  RH WIND       PRES   REMARKS
BIG PINEY      FAIR      61  31  32 N5        30.27R
6HR MIN TEMP:  58; 6HR MAX TEMP:  83;

PINEDALE       FAIR      55  32  41 SW5       30.28R
DUBOIS         FAIR      61  32  33 CALM      30.30R
LANDER         FAIR      75  36  24 CALM      30.18R
6HR MIN TEMP:  73; 6HR MAX TEMP:  89;

RIVERTON       FAIR      76  38  25 N18G25    30.18R
6HR MIN TEMP:  76; 6HR MAX TEMP:  91;

CASPER         FAIR      71  43  36 E14       30.15R
6HR MIN TEMP:  66; 6HR MAX TEMP:  91; 6HR PCP:  0.07;

DOUGLAS          N/A    N/A N/A N/A MISG      30.17R

$$
WYZ021-027>030-104>119-270700-
SOUTHERN WYOMING

CITY           SKY/WX    TMP DP  RH WIND       PRES   REMARKS
EVANSTON       FAIR      67  19  16 N7        30.28R
6HR MIN TEMP:  64; 6HR MAX TEMP:  87;

KEMMERER         N/A     64  32  29 NW7       30.30R
FORT BRIDGER   FAIR      67  19  16 W8        30.30R
ROCK SPRINGS   FAIR      69  30  23 S7        30.23R
6HR MIN TEMP:  67; 6HR MAX TEMP:  85;

DIXON          FAIR      62  39  42 CALM      30.28S
RAWLINS        FAIR      73  35  25 W14       30.25R
6HR MIN TEMP:  70; 6HR MAX TEMP:  85;

SARATOGA       FAIR      63  37  39 SE13      30.29S
LARAMIE        FAIR      59  37  44 SW9       30.29S
6HR MIN TEMP:  59; 6HR MAX TEMP:  80;

CHEYENNE       FAIR      63  48  58 NW3       30.22S
6HR MIN TEMP:  63; 6HR MAX TEMP:  84;

TORRINGTON     FAIR      67  59  75 NW5       30.08R
6HR MIN TEMP:  64; 6HR MAX TEMP:  86; 6HR PCP: TRACE;

PINE BLUFFS    FAIR      61  46  59 W3        30.17R

$$




USA.gov is the U.S. government's official web portal to all federal, state and local government web resources and services.